• Join FlightAware (Why Join?)
  • Login
  • US Flag GB Flag 
10:25 EDT


 

Airport Tracker/Info


-or-


 

Live Flight TrackerFlight Track Log ✈ N2827N ✈ 05-Feb-2014 ✈ KCAE - KPIE

Flight Track Log - Related Links

Times and Time Zones

All times are in EST time to prevent confusion due to time zone crossing. See the N2827N flight status page for this flight to view local times or setup timezone preferences in your user account.

Time Position Orientation Groundspeed Altitude Reporting Facility
EST Latitude Longitude Course Direction KTS MPH feet Rate Location/Type
16:39 33.5031 -81.2870 200° South  Level FlightAware Approximate
16:40 33.4643 -81.3037 200° South  Level FlightAware Approximate
16:41 33.4254 -81.3203 200° South  Level FlightAware Approximate
16:42 33.3866 -81.3368 200° South  Level FlightAware Approximate
16:43 33.3478 -81.3534 200° South  Level FlightAware Approximate
16:44 33.3090 -81.3700 200° South  Level FlightAware Approximate
16:45 33.2703 -81.3870 200° South  Level FlightAware Approximate
16:45 33.5511 -81.3125 200° South 134 154 6,000  Level Jacksonville Center
16:46 33.2334 -81.4032 200° South  Level FlightAware Approximate
16:46 33.5200 -81.3256 199° South 134 154 6,000  Level Jacksonville Center
16:47 33.1965 -81.4193 200° South  Level FlightAware Approximate
16:47 33.4847 -81.3411 200° South 134 154 5,900  Level Jacksonville Center
16:48 33.1596 -81.4355 200° South  Level FlightAware Approximate
16:48 33.4514 -81.3567 201° Southwest 134 154 6,000  Level Jacksonville Center
16:49 33.1227 -81.4516 200° South  Level FlightAware Approximate
16:49 33.4183 -81.3722 201° Southwest 123 142 6,100  Level Jacksonville Center
16:50 33.0858 -81.4677 200° South  Level FlightAware Approximate
16:50 33.3850 -81.3875 201° Southwest 123 142 5,900  Level Jacksonville Center
16:51 33.3497 -81.4031 200° South 133 153 6,000 120 Climbing Jacksonville Center
16:52 33.3164 -81.4186 201° Southwest 133 153 6,200  Climbing Jacksonville Center
16:53 33.2833 -81.4342 201° Southwest 133 153 6,000 -180 Descending Jacksonville Center
16:54 33.2458 -81.4494 199° South 133 153 5,900  Descending Jacksonville Center
16:55 33.2106 -81.4625 197° South 133 153 6,000  Climbing Jacksonville Center
16:56 33.1753 -81.4781 200° South 138 159 6,000  Level Jacksonville Center
16:57 33.1419 -81.4933 201° Southwest 138 159 6,000  Level Jacksonville Center
16:58 33.1067 -81.5089 200° South 138 159 6,000  Level Jacksonville Center
16:59 33.0714 -81.5217 197° South 138 159 6,000  Level Jacksonville Center
17:00 33.0361 -81.5372 200° South 138 159 6,000 -60 Level Jacksonville Center
17:01 32.9986 -81.5525 199° South 138 159 5,900 -60 Descending Jacksonville Center
17:02 32.9653 -81.5656 198° South 138 159 5,900  Level Jacksonville Center
17:03 32.9281 -81.5808 199° South 138 159 6,000  Climbing Jacksonville Center
17:04 32.8928 -81.5961 200° South 138 159 6,000 -60 Level Jacksonville Center
17:05 32.8572 -81.6117 200° South 138 159 5,900  Descending Jacksonville Center
17:06 32.8197 -81.6219 193° South 133 153 6,000  Climbing Jacksonville Center
17:07 32.7867 -81.6347 198° South 138 159 5,900  Descending Jacksonville Center
17:08 32.7492 -81.6478 196° South 138 159 6,100 60 Climbing Jacksonville Center
17:09 32.7158 -81.6631 201° Southwest 138 159 6,100 -120 Level Jacksonville Center
17:10 32.6806 -81.6808 203° Southwest 138 159 5,900 -120 Descending Jacksonville Center
17:11 32.6494 -81.6958 202° Southwest 133 153 5,900  Level Jacksonville Center
17:12 32.6119 -81.7136 202° Southwest 133 153 6,000  Climbing Jacksonville Center
17:13 32.5767 -81.7264 197° South 128 147 6,000  Level Jacksonville Center
17:14 32.5475 -81.7417 204° Southwest 128 147 6,000  Level Jacksonville Center
17:15 32.5122 -81.7544 197° South 128 147 6,000  Level Jacksonville Center
17:16 32.4767 -81.7697 200° South 133 153 6,100  Climbing Jacksonville Center
17:17 32.4394 -81.7872 202° Southwest 133 153 6,100  Level Jacksonville Center
17:18 32.4039 -81.8000 197° South 128 147 6,100 -60 Level Jacksonville Center
17:19 32.3706 -81.8103 195° South 128 147 6,000 -60 Descending Jacksonville Center
17:20 32.3333 -81.8256 199° South 133 153 6,000 -60 Level Jacksonville Center
17:21 32.2936 -81.8408 198° South 133 153 5,900  Descending Jacksonville Center
17:22 32.2561 -81.8533 196° South 138 159 6,000  Climbing Jacksonville Center
17:23 32.2231 -81.8686 201° Southwest 138 159 5,900 -60 Descending Jacksonville Center
17:24 32.1897 -81.8836 201° Southwest 138 159 5,900  Level Jacksonville Center
17:25 32.1500 -81.9011 200° South 138 159 5,900  Level Jacksonville Center
17:26 32.1147 -81.9189 203° Southwest 132 152 5,900  Level Jacksonville Center
17:27 32.0794 -81.9364 203° Southwest 132 152 6,000  Climbing Jacksonville Center
17:28 32.0439 -81.9464 193° South 137 158 6,000  Level Jacksonville Center
17:29 32.0064 -81.9617 199° South 150 173 6,000  Level Jacksonville Center
17:30 31.9650 -81.9742 194° South 150 173 6,000 -60 Level Jacksonville Center
17:31 31.9275 -81.9894 199° South 145 167 5,900 -300 Descending Jacksonville Center
17:32 31.8919 -82.0019 197° South 145 167 5,500 -360 Descending Jacksonville Center
17:33 31.8525 -82.0169 198° South 145 167 5,200 -300 Descending Jacksonville Center
17:34 31.8086 -82.0344 199° South 150 173 4,900 -180 Descending Jacksonville Center
17:35 31.7711 -82.0519 202° Southwest 150 173 4,900  Level Jacksonville Center
17:36 31.7336 -82.0644 196° South 150 173 4,900  Level Jacksonville Center
17:37 31.6961 -82.0794 199° South 150 173 4,900  Level Jacksonville Center
17:38 31.6589 -82.0944 199° South 150 173 4,900  Level Jacksonville Center
17:39 31.6172 -82.1119 200° South 150 173 4,900  Level Jacksonville Center
17:40 31.5797 -82.1292 201° Southwest 150 173 4,900  Level Jacksonville Center
17:41 31.5442 -82.1417 197° South 150 173 4,900  Level Jacksonville Center
17:42 31.5067 -82.1567 199° South 150 173 4,900  Level Jacksonville Center
17:43 31.4650 -82.1717 197° South 150 173 5,000  Climbing Jacksonville Center
17:44 31.4297 -82.1889 203° Southwest 150 173 5,000 -60 Level Jacksonville Center
17:45 31.3922 -82.2061 201° Southwest 151 174 4,900 -60 Descending Jacksonville Center
17:46 31.3547 -82.2186 196° South 156 180 4,900  Level Jacksonville Center
17:47 31.3128 -82.2189 180° South 156 180 4,900  Level Jacksonville Center
17:48 31.2692 -82.2194 181° South 156 180 5,000  Climbing Jacksonville Center
17:49 31.2272 -82.2194 180° South 156 180 5,000  Level Jacksonville Center
17:50 31.1856 -82.2200 181° South 156 180 5,000  Level Jacksonville Center
17:51 31.1439 -82.2203 180° South 156 180 5,000 -120 Level Jacksonville Center
17:51 31.1314 -82.2228 190° South 153 176 4,900 -120 Descending Jacksonville Center
17:52 31.1000 -82.2206 177° South 156 180 4,900  Level Jacksonville Center
17:52 31.0917 -82.2231 194° South 153 176 4,900  Level Jacksonville Center
17:53 31.0581 -82.2208 177° South 156 180 4,900  Level Jacksonville Center
17:53 31.0497 -82.2208 180° South 153 176 4,900  Level Jacksonville Center
17:54 31.0122 -82.2211 180° South 151 174 4,900  Level Jacksonville Center
17:55 30.9747 -82.2214 180° South 156 180 4,900  Level Jacksonville Center
17:55 30.9706 -82.2239 207° Southwest 149 171 4,900 60 Level Jacksonville Center
17:56 30.9350 -82.2242 180° South 156 180 5,000 60 Climbing Jacksonville Center
17:56 30.9308 -82.2242 180° South 146 168 5,000 -120 Level Jacksonville Center
17:57 30.8911 -82.2244 180° South 156 180 4,900 -120 Descending Jacksonville Center
17:57 30.8892 -82.2244 180° South 151 174 4,900  Level Jacksonville Center
17:58 30.8494 -82.2272 183° South 156 180 4,900  Level Jacksonville Center
17:58 30.8411 -82.2247 166° South 151 174 4,900 60 Level Jacksonville Center
17:59 30.8078 -82.2372 198° South 149 171 5,000 60 Climbing Jacksonville Center
17:59 30.8097 -82.2369 North 156 180 5,000 -120 Level Jacksonville Center
18:00 30.7703 -82.2447 190° South 156 180 4,900 -60 Descending Jacksonville Center
18:01 30.7283 -82.2594 197° South 145 167 4,900  Level Jacksonville Center
18:02 30.6908 -82.2767 202° Southwest 144 166 4,900  Level Jacksonville Center
18:03 30.6533 -82.2889 196° South 137 158 4,900  Level Jacksonville Center
18:04 30.6158 -82.3108 207° Southwest 136 157 4,900  Level Jacksonville Center
18:05 30.5828 -82.3353 212° Southwest 136 157 4,900  Level Jacksonville Center
18:06 30.5536 -82.3594 216° Southwest 139 160 4,900  Level Jacksonville Center
18:07 30.5203 -82.3861 215° Southwest 139 160 5,000  Climbing Jacksonville Center
18:08 30.4889 -82.4081 211° Southwest 138 159 4,900 -60 Descending Jacksonville Center
18:09 30.4536 -82.4322 211° Southwest 137 158 4,900  Level Jacksonville Center
18:10 30.4244 -82.4589 218° Southwest 136 157 5,000  Climbing Jacksonville Center
18:12 30.3933 -82.4881 219° Southwest 136 157 5,000  Level Jacksonville Center
18:13 30.3642 -82.5194 223° Southwest 136 157 5,000  Level Jacksonville Center
18:14 30.3411 -82.5556 234° Southwest 133 153 5,000  Level Jacksonville Center
18:15 30.3164 -82.5917 232° Southwest 135 155 5,000 -60 Level Jacksonville Center
18:16 30.2933 -82.6256 232° Southwest 137 158 4,900 -60 Descending Jacksonville Center
18:17 30.2517 -82.6378 194° South 160 184 4,900 60 Level Jacksonville Center
18:18 30.2078 -82.6353 177° South 158 182 5,100  Climbing Jacksonville Center
18:19 30.1619 -82.6331 178° South 154 177 5,000 -120 Descending Jacksonville Center
18:20 30.1181 -82.6333 180° South 159 183 4,900 -60 Descending Jacksonville Center
18:21 30.0742 -82.6308 177° South 160 184 4,900  Level Jacksonville Center
18:22 30.0303 -82.6311 180° South 158 182 4,900  Level Jacksonville Center
18:23 29.9822 -82.6289 178° South 159 183 4,900  Level Jacksonville Center
18:24 29.9364 -82.6267 178° South 159 183 4,900  Level Jacksonville Center
18:25 29.8883 -82.6267 180° South 159 183 4,900  Level Jacksonville Center
18:26 29.8425 -82.6219 175° South 162 186 4,900  Level Jacksonville Center
18:27 29.8006 -82.6197 177° South 155 178 4,900  Level Jacksonville Center
18:28 29.7547 -82.6175 178° South 154 177 4,900  Level Jacksonville Center
18:29 29.7047 -82.6153 178° South 153 176 5,000  Climbing Jacksonville Center
18:30 29.6586 -82.6106 175° South 153 176 4,900 -60 Descending Jacksonville Center
18:31 29.6231 -82.6058 173° South 154 177 4,900 -60 Level Jacksonville Center
18:32 29.5836 -82.6036 177° South 155 178 4,800 -60 Descending Jacksonville Center
18:33 29.5397 -82.6014 177° South 155 178 4,800  Level Jacksonville Center
18:34 29.4958 -82.6014 180° South 151 174 4,900  Climbing Jacksonville Center
18:35 29.4542 -82.5969 175° South 152 175 4,900  Level Jacksonville Center
18:36 29.4103 -82.5969 180° South 154 177 4,900  Level Jacksonville Center
18:37 29.3725 -82.5972 180° South 153 176 4,900  Level Jacksonville Center
18:38 29.3289 -82.5972 180° South 155 178 4,900  Level Jacksonville Center
18:39 29.2786 -82.5903 173° South 157 181 4,900  Level Jacksonville Center
18:40 29.2369 -82.5881 177° South 155 178 4,900  Level Jacksonville Center
18:41 29.1889 -82.5858 178° South 156 180 4,900  Level Jacksonville Center
18:42 29.1431 -82.5836 178° South 154 177 4,900  Level Jacksonville Center
18:43 29.1011 -82.5836 180° South 153 176 4,900  Level Jacksonville Center
18:44 29.0617 -82.5814 177° South 152 175 4,900  Level Jacksonville Center
18:45 29.0261 -82.5814 180° South 152 175 4,900  Level Jacksonville Center
18:46 28.9803 -82.5817 180° South 151 174 4,900  Level Jacksonville Center
18:47 28.9383 -82.5817 180° South 153 176 4,900  Level Jacksonville Center
18:48 28.8967 -82.5794 177° South 150 173 4,900  Level Jacksonville Center
18:49 28.8550 -82.5750 175° South 148 170 5,000  Climbing Jacksonville Center
18:50 28.8131 -82.5728 177° South 148 170 4,900 -60 Descending Jacksonville Center
18:51 28.7694 -82.5728 180° South 149 171 4,900  Level Jacksonville Center
18:52 28.7275 -82.5731 180° South 153 176 4,900  Level Jacksonville Center
18:53 28.6881 -82.5825 192° South 143 165 5,000  Climbing Jacksonville Center
18:54 28.6506 -82.5969 199° South 142 163 5,000 -120 Level Jacksonville Center
18:55 28.6108 -82.6111 197° South 144 166 4,800 -360 Descending Jacksonville Center
18:56 28.5692 -82.6278 199° South 154 177 4,300 -420 Descending Jacksonville Center
18:57 28.5275 -82.6397 194° South 157 181 4,000 -240 Descending Jacksonville Center
18:58 28.4897 -82.6611 206° Southwest 152 175 3,900 -120 Descending Jacksonville Center
18:59 28.4522 -82.6753 198° South 145 167 3,800 -240 Descending Jacksonville Center
19:02 28.3667 -82.7167 203° Southwest 153 176 3,300 -300 Descending Tampa TRACON
19:03 28.3167 -82.7333 196° South 159 183 2,900 -180 Descending Tampa TRACON
19:04 28.2833 -82.7500 204° Southwest 154 177 3,000 60 Climbing Tampa TRACON
19:05 28.2333 -82.7667 196° South 145 167 3,100  Climbing Tampa TRACON
19:06 28.2000 -82.7833 204° Southwest 147 169 3,100  Level Tampa TRACON
19:07 28.1667 -82.8000 204° Southwest 151 174 3,100  Level Tampa TRACON
19:09 28.0975 -82.7696 184° South  Level Estimated
19:16 27.9100 -82.6875 184° South  Level Estimated
19:17 27.9100 -82.6875 184° South  Level Estimated
19:18 27.9100 -82.6875 184° South  Level Estimated
19:19 27.9100 -82.6875 184° South  Level Estimated
19:20 27.9100 -82.6875 184° South  Level Estimated
19:21 27.9100 -82.6875 184° South  Level Estimated
19:22 27.9100 -82.6875 184° South  Level Estimated